Location: Ford County Road and Bridge Department
(37.7686°N, 99.9762°W)
Time: 03:27:48
(UTC+00:00)

DELTA 2 R/B (1) - Pass Details

Date: 18 January 2020
Orbit: 791 x 802 km, 39.6° (Epoch: 18 February)

Event Time Altitude Azimuth Distance (km) Brightness Sun altitude
Rises 00:53:23 0° 238° (WSW) 3,284 8.4 -13.1°
Reaches altitude 10° 00:55:53 10° 234° (SW) 2,358 7.2 -13.6°
Maximum altitude 01:01:21 59° 156° (SSE) 916 3.8 -14.6°
Enters shadow 01:04:45 23° 85° (E) 1,639 4.6 -15.3°
